sat.trackr.live / text

‹ back to catalog

STARLINK-5579

NORAD 55746 · 2023-028F

PAYLOAD ACTIVE UNKNOWN

§ Identity

Operator
Country
US
Launch date
2023-03-03
Launch site
AFWTR
Launch vehicle
Mass (kg)
RCS (m²)

Purposes: comms

External: N2YO · Heavens-Above · Gunter

§ Orbital elements

Epoch: 2026-09-20T23:27:17.479296Z

Period
95.90 min
Inclination
69.9972°
Eccentricity
0.0003430
Mean motion
15.01592611 rev/d
Perigee alt
559.6 km
Apogee alt
564.4 km
Semi-major
6,940.1 km
B*
1.1546e-3
RAAN
112.0188°
Arg perigee
276.1198°
Mean anomaly
83.9571°
Rev number
19,529

§ Raw data

STARLINK-55791 55746U 23028F   26263.97728564  .00014936  00000+0  11546-2 0  99902 55746  69.9972 112.0188 0003430 276.1198  83.9571 15.01592611195296

JSON: /api/v1/satellites/55746 · /tle

For live sub-satellite position, see the globe view (requires WebGL).

§ Visibility from observer

Set your observer location to see the next 7 days of passes ≥ 10°. The values pass through the URL so the page stays shareable.

No JS? Fill the form by hand. The geolocation button needs JavaScript.